DW0805 Weather Reports


Display with metric or nautical units.
time (UTC)temp
F
wind
direction
speed
MPH
gust
MPH
rain 1hr
in
rain 24hr
in
rain mn
in
humidity
%
barometer
mb
20220930023541 48 89 4.0 7.0 0.00 0.17 0.06 94 1006.7
20220930015541 48 100 3.0 7.0 0.01 0.19 0.06 94 1006.5
20220930014544 47 99 4.0 7.0 0.01 0.19 0.06 94 1006.6
20220930011541 48 102 3.0 6.0 0.01 0.19 0.06 93 1006.6
20220930010541 49 105 4.0 7.0 0.01 0.19 0.06 93 1006.6
20220930002541 50 80 5.0 13.0 0.00 0.19 0.05 93 1006.3
20220930000540 49 72 7.0 12.0 0.00 0.20 0.05 93 1006.5
20220929233541 50 85 7.0 13.0 0.01 0.20 0.05 93 1006.5
20220929231542 49 70 3.0 8.0 0.03 0.20 0.05 93 1006.6
20220929224546 49 79 6.0 12.0 0.06 0.20 0.05 93 1006.7
20220929214542 50 84 2.0 6.0 0.06 0.15 0.14 93 1006.3
20220929213540 50 78 3.0 7.0 0.05 0.13 0.13 92 1006.3
20220929212541 51 84 4.0 7.0 0.04 0.13 0.12 92 1006.2
20220929205540 50 78 5.0 9.0 0.00 0.10 0.08 92 1005.7
20220929202542 50 88 6.0 12.0 0.00 0.10 0.08 91 1005.3
20220929201541 50 74 7.0 13.0 0.00 0.11 0.08 91 1005.2
20220929191541 50 80 6.0 12.0 0.00 0.15 0.08 92 1004.8
20220929190540 50 78 6.0 12.0 0.00 0.15 0.08 92 1004.7
20220929181541 50 66 6.0 9.0 0.00 0.17 0.08 91 1004.2
20220929175540 50 61 5.0 10.0 0.00 0.17 0.08 91 1004.0
20220929171541 50 86 5.0 9.0 0.00 0.17 0.08 90 1003.3
20220929170540 51 79 5.0 9.0 0.00 0.17 0.08 89 1003.3
20220929165540 51 64 6.0 12.0 0.00 0.17 0.08 88 1003.0
20220929163540 52 90 9.0 15.0 0.00 0.18 0.08 87 1002.9
20220929151541 54 98 6.0 15.0 0.00 0.19 0.08 86 1001.8
20220929135540 53 102 9.0 16.0 0.03 0.19 0.08 89 1000.9
20220929123540 54 109 9.0 15.0 0.01 0.16 0.05 91 999.6
20220929120540 54 108 13.0 18.0 0.00 0.15 0.04 88 999.2
20220929113541 56 71 7.0 13.0 0.00 0.15 0.04 85 998.6
20220929111541 57 81 8.0 14.0 0.00 0.15 0.04 86 998.4
20220929110540 55 60 9.0 14.0 0.00 0.15 0.04 87 998.3
20220929102543 53 57 9.0 14.0 0.00 0.15 0.04 88 998.2
20220929090540 52 74 12.0 18.0 0.00 0.15 0.04 91 997.3
20220929085540 52 42 7.0 14.0 0.00 0.15 0.04 91 997.3
20220929081541 51 57 12.0 16.0 0.01 0.15 0.04 91 996.9
20220929080540 51 54 9.0 17.0 0.01 0.15 0.04 91 996.8
20220929075540 51 60 7.0 13.0 0.01 0.15 0.04 91 996.6
20220929074541 51 53 8.0 14.0 0.01 0.15 0.04 90 996.6
20220929072541 52 29 5.0 13.0 0.00 0.14 0.03 89 996.6
20220929061541 51 53 6.0 13.0 0.00 0.14 0.03 89 996.2
20220929060540 51 51 6.0 14.0 0.00 0.14 0.03 88 996.1
20220929053540 51 45 5.0 16.0 0.00 0.14 0.03 89 996.2
20220929052539 51 10 5.0 13.0 0.00 0.14 0.03 89 996.2
20220929044540 51 41 5.0 14.0 0.00 0.14 0.03 90 996.0
20220929042545 51 57 5.0 14.0 0.00 0.14 0.03 91 996.0
20220929040539 51 47 6.0 16.0 0.00 0.14 0.03 91 995.9
20220929035540 51 60 5.0 16.0 0.00 0.15 0.03 92 995.8
20220929034539 51 47 5.0 15.0 0.00 0.15 0.03 92 995.8
20220929032540 51 59 10.0 20.0 0.01 0.17 0.03 92 995.8